Location: Colonia Mina de C?rbuni
(46.1667°N, 22.7167°E)
Time: 07:46:57
(UTC+00:00)

Vanguard 2 - Pass Details

Date: 16 April 2024
Orbit: 552 x 2914 km, 32.9° (Epoch: 24 May)

Event Time Altitude Azimuth Distance (km) Brightness Sun altitude
Rises 02:16:55 0° 240° (WSW) 6,499 - -14.0°
Reaches altitude 10° 02:21:17 10° 235° (SW) 5,628 - -13.4°
Exits shadow 02:23:07 15° 232° (SW) 5,278 11.1 -13.1°
Maximum altitude 02:37:35 47° 169° (S) 3,448 10.7 -10.9°
Drops below altitude 10° 02:51:43 10° 102° (ESE) 4,938 12.5 -8.7°
Sets 02:55:15 0° 97° (E) 5,677 13.1 -8.2°
